Weather History for Rice Lake, WI

Change the Weather History Date:

Saturday, November 17, 2012

  Actual Average Record
Temperature  
Mean Temperature 42 °F -  
Max Temperature 51 °F 37 °F 69 °F (2001)
Min Temperature 32 °F 24 °F 3 °F (2005)
Degree Days  
Heating Degree Days 24    
Moisture  
Dew Point 32 °F    
Average Humidity 75    
Maximum Humidity 100    
Minimum Humidity 50    
Precipitation  
Precipitation 0.00 in - - ()
Sea Level Pressure  
Sea Level Pressure 30.32 in    
Wind  
Wind Speed 8 mph (SE)    
Max Wind Speed 13 mph    
Max Gust Speed 20 mph    
Visibility 7 miles    
Events      
Averages and records for this station are not official NWS values.
T = Trace of Precipitation, MM = Missing Value Source: NWS Daily Summary

Daily Weather History Graph

Daily Weather History Graph

Search for Another Location

Airport:

Trip Planner

Search our weather history database for the weather conditions in past years. The results will help you decide how hot, cold, wet, or windy it might be!

Date:

Astronomy

Nov. 17, 2012 Rise Set
Actual Time 7:09 AM CST 4:34 PM CST
Civil Twilight 6:37 AM CST 5:06 PM CST
Nautical Twilight 6:01 AM CST 5:42 PM CST
Astronomical Twilight 5:25 AM CST 6:17 PM CST
Moon 10:54 AM CST (11/17) 8:45 PM CST (11/17)
Length of Visible Light 10h 29m
Length of Day
9h 25m
Waxing Crescent, 20% of the Moon is Illuminated
Nov 17
Waxing Crescent
Nov 20
First Quarter
Nov 28
Full
Dec 6
Last Quarter
Dec 13
New

Hourly Weather History & Observations

Time (CST) Temp. Windchill Dew Point Humidity Pressure Visibility Wind Dir Wind Speed Gust Speed Precip Events Conditions
12:15 AM 32.0 °F 24.8 °F 30.2 °F 93% 30.38 in 7.0 mi SE 8.1 mph - N/A   Clear
12:35 AM 32.0 °F 26.4 °F 30.2 °F 93% 30.38 in 7.0 mi SE 5.8 mph - N/A   Clear
12:55 AM 32.0 °F 24.8 °F 30.2 °F 93% 30.38 in 7.0 mi ESE 8.1 mph - N/A   Clear
1:15 AM 32.0 °F 26.4 °F 30.2 °F 93% 30.38 in 5.0 mi ESE 5.8 mph - N/A   Clear
1:35 AM 32.0 °F 25.6 °F 30.2 °F 93% 30.38 in 5.0 mi ESE 6.9 mph - N/A   Clear
1:55 AM 32.0 °F 24.8 °F 30.2 °F 93% 30.37 in 5.0 mi ESE 8.1 mph - N/A   Clear
2:15 AM 32.0 °F 25.6 °F 30.2 °F 93% 30.37 in 4.0 mi SE 6.9 mph - N/A   Clear
2:35 AM 32.0 °F 26.4 °F 30.2 °F 93% 30.37 in 4.0 mi SE 5.8 mph - N/A   Clear
2:55 AM 32.0 °F 26.4 °F 30.2 °F 93% 30.37 in 4.0 mi SE 5.8 mph - N/A   Clear
3:15 AM 32.0 °F 26.4 °F 30.2 °F 93% 30.37 in 4.0 mi ESE 5.8 mph - N/A   Clear
3:35 AM 32.0 °F 28.7 °F 30.2 °F 93% 30.36 in 3.0 mi ESE 3.5 mph - N/A   Clear
3:55 AM 32.0 °F 27.5 °F 30.2 °F 93% 30.36 in 3.0 mi SE 4.6 mph - N/A   Clear
4:15 AM 32.0 °F 28.7 °F 30.2 °F 93% 30.36 in 3.0 mi ESE 3.5 mph - N/A   Clear
4:35 AM 32.0 °F 25.6 °F 30.2 °F 93% 30.36 in 3.0 mi SE 6.9 mph - N/A   Clear
4:55 AM 32.0 °F 26.4 °F 30.2 °F 93% 30.35 in 2.5 mi ESE 5.8 mph - N/A   Clear
5:15 AM 32.0 °F 25.6 °F 30.2 °F 93% 30.35 in 2.0 mi ESE 6.9 mph - N/A   Clear
5:35 AM 32.0 °F 25.6 °F 30.2 °F 93% 30.35 in 2.5 mi ESE 6.9 mph - N/A   Scattered Clouds
5:55 AM 32.0 °F 24.2 °F 30.2 °F 93% 30.35 in 2.5 mi ESE 9.2 mph - N/A   Clear
6:15 AM 32.0 °F 23.6 °F 30.2 °F 93% 30.35 in 2.5 mi SE 10.4 mph - N/A   Clear
6:35 AM 32.0 °F 24.8 °F 30.2 °F 93% 30.35 in 3.0 mi ESE 8.1 mph - N/A   Clear
6:55 AM 32.0 °F 27.5 °F 30.2 °F 93% 30.35 in 2.5 mi ESE 4.6 mph - N/A   Clear
7:15 AM 32.0 °F 26.4 °F 30.2 °F 93% 30.35 in 2.5 mi ESE 5.8 mph - N/A   Clear
7:35 AM 32.0 °F 25.6 °F 32.0 °F 100% 30.35 in 2.5 mi ESE 6.9 mph - N/A   Clear
7:55 AM 32.0 °F 25.6 °F 32.0 °F 100% 30.35 in 2.5 mi SE 6.9 mph - N/A   Clear
8:15 AM 32.0 °F 25.6 °F 32.0 °F 100% 30.35 in 2.5 mi ESE 6.9 mph - N/A   Clear
8:35 AM 32.0 °F 24.2 °F 32.0 °F 100% 30.35 in 3.0 mi ESE 9.2 mph - N/A   Clear
8:55 AM 33.8 °F 26.4 °F 32.0 °F 93% 30.35 in 3.0 mi ESE 9.2 mph - N/A   Clear
9:15 AM 33.8 °F 27.0 °F 32.0 °F 93% 30.35 in 4.0 mi ESE 8.1 mph - N/A   Clear
9:35 AM 35.6 °F 28.6 °F 32.0 °F 87% 30.35 in 4.0 mi SE 9.2 mph - N/A   Clear
10:15 AM 39.2 °F 35.0 °F 33.8 °F 81% 30.36 in 5.0 mi SE 5.8 mph - N/A   Haze
10:35 AM 41.0 °F 35.2 °F 33.8 °F 76% 30.35 in 7.0 mi SE 9.2 mph - N/A   Clear
11:55 AM 48.2 °F - 35.6 °F 62% 30.32 in 10.0 mi SE 10.4 mph - N/A   Clear
12:15 PM 50.0 °F - 35.6 °F 58% 30.31 in 10.0 mi SE 12.7 mph 16.1 mph N/A   Clear
12:35 PM 50.0 °F - 33.8 °F 54% 30.31 in 10.0 mi SSE 10.4 mph - N/A   Clear
12:55 PM 51.8 °F - 35.6 °F 54% 30.30 in 10.0 mi SSE 10.4 mph - N/A   Clear
1:15 PM 51.8 °F - 33.8 °F 50% 30.30 in 10.0 mi SSE 9.2 mph - N/A   Clear
1:55 PM 51.8 °F - 33.8 °F 50% 30.29 in 10.0 mi SSE 11.5 mph - N/A   Clear
2:15 PM 51.8 °F - 35.6 °F 54% 30.29 in 10.0 mi SE 10.4 mph - N/A   Clear
2:55 PM 51.8 °F - 35.6 °F 54% 30.29 in 10.0 mi SSE 9.2 mph - N/A   Clear
3:15 PM 51.8 °F - 33.8 °F 50% 30.28 in 10.0 mi South 11.5 mph 19.6 mph N/A   Clear
3:35 PM 51.8 °F - 33.8 °F 50% 30.28 in 10.0 mi SSE 6.9 mph 12.7 mph N/A   Clear
3:55 PM 50.0 °F - 33.8 °F 54% 30.29 in 10.0 mi SSE 11.5 mph 16.1 mph N/A   Clear
4:15 PM 50.0 °F - 33.8 °F 54% 30.28 in 10.0 mi SE 9.2 mph - N/A   Clear
4:35 PM 50.0 °F - 33.8 °F 54% 30.28 in 10.0 mi SE 9.2 mph - N/A   Clear
4:55 PM 48.2 °F - 33.8 °F 58% 30.28 in 10.0 mi SE 10.4 mph - N/A   Clear
5:15 PM 46.4 °F 42.4 °F 33.8 °F 62% 30.28 in 10.0 mi SE 8.1 mph - N/A   Clear
5:35 PM 46.4 °F 41.5 °F 33.8 °F 62% 30.28 in 10.0 mi SE 10.4 mph - N/A   Clear
5:55 PM 46.4 °F 41.5 °F 33.8 °F 62% 30.28 in 10.0 mi ESE 10.4 mph - N/A   Clear
6:15 PM 46.4 °F 41.5 °F 33.8 °F 62% 30.28 in 10.0 mi SE 10.4 mph - N/A   Clear
6:35 PM 44.6 °F 39.2 °F 33.8 °F 66% 30.28 in 10.0 mi SE 10.4 mph - N/A   Clear
6:55 PM 44.6 °F 39.2 °F 33.8 °F 66% 30.28 in 10.0 mi SE 10.4 mph - N/A   Clear
7:15 PM 44.6 °F 39.7 °F 32.0 °F 61% 30.28 in 10.0 mi SE 9.2 mph - N/A   Clear
7:35 PM 44.6 °F 41.4 °F 32.0 °F 61% 30.28 in 10.0 mi SSE 5.8 mph - N/A   Clear
7:55 PM 44.6 °F 40.7 °F 32.0 °F 61% 30.28 in 10.0 mi SE 6.9 mph - N/A   Mostly Cloudy
8:15 PM 44.6 °F 39.7 °F 32.0 °F 61% 30.28 in 10.0 mi SE 9.2 mph - N/A   Overcast
8:35 PM 44.6 °F 39.7 °F 32.0 °F 61% 30.28 in 10.0 mi SE 9.2 mph - N/A   Mostly Cloudy
8:55 PM 42.8 °F 37.5 °F 32.0 °F 66% 30.28 in 10.0 mi SE 9.2 mph - N/A   Scattered Clouds
9:15 PM 44.6 °F 39.2 °F 32.0 °F 61% 30.28 in 10.0 mi SE 10.4 mph - N/A   Mostly Cloudy
9:35 PM 44.6 °F 39.7 °F 32.0 °F 61% 30.27 in 10.0 mi SE 9.2 mph - N/A   Mostly Cloudy
9:55 PM 44.6 °F 39.7 °F 33.8 °F 66% 30.28 in 10.0 mi SE 9.2 mph - N/A   Scattered Clouds
10:15 PM 42.8 °F 37.5 °F 33.8 °F 70% 30.28 in 10.0 mi SE 9.2 mph - N/A   Scattered Clouds
10:35 PM 44.6 °F 40.2 °F 33.8 °F 66% 30.28 in 10.0 mi SE 8.1 mph - N/A   Overcast
10:55 PM 44.6 °F 39.2 °F 33.8 °F 66% 30.28 in 10.0 mi SSE 10.4 mph - N/A   Overcast
11:15 PM 44.6 °F 39.7 °F 32.0 °F 61% 30.29 in 10.0 mi SSE 9.2 mph - N/A   Overcast
11:35 PM 44.6 °F 39.7 °F 32.0 °F 61% 30.29 in 10.0 mi SSE 9.2 mph - N/A   Mostly Cloudy
11:55 PM 42.8 °F 37.5 °F 32.0 °F 66% 30.29 in 10.0 mi SE 9.2 mph - N/A   Mostly Cloudy